Weather History for Atlantic City, NJ

Change the Weather History Date:

Monday, September 10, 2012

  Actual Average Record
Temperature  
Mean Temperature 65 °F 69 °F  
Max Temperature 76 °F 79 °F 95 °F (1983)
Min Temperature 53 °F 60 °F 38 °F (1975)
Degree Days  
Heating Degree Days 0 1  
Month to date heating degree days 0 7  
Since 1 July heating degree days 0 10  
Cooling Degree Days 0 5  
Month to date cooling degree days 98 63  
Year to date cooling degree days 1157 972  
Growing Degree Days 15 (Base 50)    
Moisture  
Dew Point 49 °F    
Average Humidity 61    
Maximum Humidity 86    
Minimum Humidity 35    
Precipitation  
Precipitation 0.00 in 0.09 in 1.51 in (1909)
Month to date precipitation 2.91 0.94  
Year to date precipitation 31.41 29.16  
Snow  
Snow 0.00 in 0.00 in 0.00 in (1903)
Month to date snowfall 0.0 0.0  
Since 1 July snowfall 0.0 0.0  
Since 1 September snowfall 0.0 0.0  
Snow Depth 0.00 in    
Sea Level Pressure  
Sea Level Pressure 30.01 in    
Wind  
Wind Speed 10 mph (NNW)    
Max Wind Speed 20 mph    
Max Gust Speed 24 mph    
Visibility 10 miles    
Events      
T = Trace of Precipitation, MM = Missing Value Source: NWS Daily Summary

Daily Weather History Graph

Daily Weather History Graph

Search for Another Location

Airport:

Trip Planner

Search our weather history database for the weather conditions in past years. The results will help you decide how hot, cold, wet, or windy it might be!

Date:

Astronomy

Sep. 10, 2012 Rise Set
Actual Time 6:35 AM EDT 7:14 PM EDT
Civil Twilight 6:08 AM EDT 7:41 PM EDT
Nautical Twilight 5:36 AM EDT 8:13 PM EDT
Astronomical Twilight 5:03 AM EDT 8:45 PM EDT
Moon 12:55 AM EDT (9/10) 3:40 PM EDT (9/10)
Length of Visible Light 13h 33m
Length of Day
12h 38m
Waning Crescent, 30% of the Moon is Illuminated
Sep 10
Waning Crescent
Sep 15
New
Sep 22
First Quarter
Sep 29
Full
Oct 8
Last Quarter

Hourly Weather History & Observations

Time (EDT) Temp. Dew Point Humidity Pressure Visibility Wind Dir Wind Speed Gust Speed Precip Events Conditions
12:54 AM 60.1 °F 55.0 °F 83% 29.91 in 10.0 mi WNW 4.6 mph - N/A   Clear
1:54 AM 59.0 °F 54.0 °F 83% 29.91 in 10.0 mi NW 4.6 mph - N/A   Clear
2:54 AM 59.0 °F 53.1 °F 81% 29.91 in 10.0 mi NNW 6.9 mph - N/A   Clear
3:54 AM 59.0 °F 53.1 °F 81% 29.91 in 10.0 mi NNW 9.2 mph - N/A   Clear
4:54 AM 57.9 °F 53.1 °F 84% 29.93 in 10.0 mi NNW 6.9 mph - N/A   Clear
5:54 AM 57.9 °F 52.0 °F 81% 29.95 in 10.0 mi NNW 9.2 mph - N/A   Clear
6:54 AM 57.9 °F 51.1 °F 78% 29.98 in 10.0 mi NNW 10.4 mph - N/A   Clear
7:54 AM 60.1 °F 51.1 °F 72% 30.00 in 10.0 mi NNW 9.2 mph - N/A   Clear
8:54 AM 63.0 °F 51.1 °F 65% 30.01 in 10.0 mi North 12.7 mph - N/A   Clear
9:54 AM 66.9 °F 50.0 °F 54% 30.03 in 10.0 mi North 15.0 mph 21.9 mph N/A   Clear
10:54 AM 70.0 °F 48.9 °F 47% 30.03 in 10.0 mi NNW 11.5 mph - N/A   Clear
11:54 AM 72.0 °F 48.9 °F 44% 30.02 in 10.0 mi North 12.7 mph 19.6 mph N/A   Clear
12:54 PM 73.0 °F 48.0 °F 41% 30.02 in 10.0 mi North 15.0 mph - N/A   Clear
1:54 PM 73.9 °F 46.0 °F 37% 30.02 in 10.0 mi NNW 12.7 mph 18.4 mph N/A   Scattered Clouds
2:54 PM 75.0 °F 46.0 °F 36% 30.00 in 10.0 mi NNW 15.0 mph 21.9 mph N/A   Partly Cloudy
3:54 PM 73.9 °F 45.0 °F 35% 30.00 in 10.0 mi NNW 15.0 mph - N/A   Partly Cloudy
4:54 PM 73.9 °F 45.0 °F 35% 30.01 in 10.0 mi NNW 13.8 mph 19.6 mph N/A   Mostly Cloudy
5:54 PM 71.1 °F 45.0 °F 39% 30.03 in 10.0 mi NNW 9.2 mph - N/A   Scattered Clouds
6:54 PM 66.9 °F 48.9 °F 52% 30.05 in 10.0 mi NW 4.6 mph - N/A   Partly Cloudy
7:54 PM 61.0 °F 48.9 °F 64% 30.07 in 10.0 mi NNW 5.8 mph - N/A   Clear
8:54 PM 60.1 °F 46.9 °F 62% 30.11 in 10.0 mi NNW 6.9 mph - N/A   Clear
9:54 PM 57.0 °F 46.9 °F 69% 30.12 in 10.0 mi NNW 6.9 mph - N/A   Clear
10:54 PM 55.9 °F 46.0 °F 69% 30.14 in 10.0 mi NNW 6.9 mph - N/A   Clear
11:54 PM 55.9 °F 45.0 °F 67% 30.16 in 10.0 mi North 8.1 mph - N/A   Clear